TimeEST,TemperatureF,Dew PointF,Humidity,Sea Level PressureIn,VisibilityMPH,Wind Direction,Wind SpeedMPH,Gust SpeedMPH,PrecipitationIn,Events,Conditions,WindDirDegrees,DateUTC
12:53 AM,32.0,28.0,85,30.26,5.0,WNW,8.1,-,N/A,,Overcast,300,2013-03-07 05:53:00
1:53 AM,30.9,28.0,89,30.27,5.0,NW,9.2,-,N/A,,Overcast,310,2013-03-07 06:53:00
2:53 AM,30.9,28.0,89,30.26,5.0,WNW,6.9,-,N/A,,Overcast,300,2013-03-07 07:53:00
3:53 AM,30.9,28.0,89,30.28,4.0,WNW,8.1,-,N/A,,Overcast,290,2013-03-07 08:53:00
4:53 AM,32.0,28.0,85,30.29,4.0,NW,8.1,-,N/A,,Overcast,310,2013-03-07 09:53:00
5:53 AM,30.9,27.0,85,30.30,5.0,NW,10.4,-,0.00,,Overcast,310,2013-03-07 10:53:00
6:53 AM,30.9,27.0,85,30.32,5.0,NW,8.1,-,N/A,,Overcast,310,2013-03-07 11:53:00
7:53 AM,30.9,27.0,85,30.33,3.0,WNW,5.8,-,N/A,,Overcast,300,2013-03-07 12:53:00
8:53 AM,30.9,27.0,85,30.36,4.0,WNW,6.9,-,N/A,,Overcast,300,2013-03-07 13:53:00
9:53 AM,32.0,27.0,82,30.36,4.0,WNW,6.9,-,N/A,,Haze,300,2013-03-07 14:53:00
10:17 AM,33.8,28.4,81,30.35,5.0,NW,6.9,-,N/A,,Haze,310,2013-03-07 15:17:00
10:53 AM,34.0,28.0,79,30.37,6.0,NW,4.6,-,N/A,,Haze,310,2013-03-07 15:53:00
11:53 AM,36.0,26.1,67,30.37,10.0,NNW,8.1,-,N/A,,Overcast,330,2013-03-07 16:53:00
12:53 PM,36.0,27.0,70,30.37,10.0,NW,10.4,-,N/A,,Overcast,320,2013-03-07 17:53:00
1:53 PM,37.0,26.1,65,30.35,10.0,NW,8.1,-,N/A,,Overcast,310,2013-03-07 18:53:00
2:53 PM,37.0,25.0,62,30.35,10.0,NW,8.1,-,N/A,,Overcast,310,2013-03-07 19:53:00
3:53 PM,36.0,27.0,70,30.36,10.0,WNW,9.2,-,N/A,,Overcast,290,2013-03-07 20:53:00
4:53 PM,36.0,25.0,64,30.37,10.0,NW,8.1,-,N/A,,Overcast,310,2013-03-07 21:53:00
5:53 PM,36.0,27.0,70,30.38,10.0,NW,8.1,-,N/A,,Overcast,310,2013-03-07 22:53:00
6:53 PM,35.1,27.0,72,30.39,10.0,NW,4.6,-,N/A,,Overcast,320,2013-03-07 23:53:00
7:53 PM,35.1,27.0,72,30.40,10.0,NW,4.6,-,N/A,,Overcast,310,2013-03-08 00:53:00
8:53 PM,34.0,27.0,75,30.40,10.0,NW,5.8,-,N/A,,Overcast,310,2013-03-08 01:53:00
9:53 PM,33.1,27.0,78,30.39,10.0,NW,3.5,-,N/A,,Overcast,320,2013-03-08 02:53:00
10:53 PM,33.1,26.1,75,30.39,10.0,Calm,Calm,-,N/A,,Overcast,0,2013-03-08 03:53:00
11:53 PM,33.1,26.1,75,30.40,10.0,Calm,Calm,-,N/A,,Overcast,0,2013-03-08 04:53:00